Year,Month,Day,Hour,Minute,Value (Times are PST for temperature in C)
2010,03,19,00,00,5.10
2010,03,19,00,01,5.10
2010,03,19,00,02,5.10
2010,03,19,00,03,5.00
2010,03,19,00,04,5.00
2010,03,19,00,05,4.90
2010,03,19,00,06,4.90
2010,03,19,00,07,4.90
2010,03,19,00,08,4.90
2010,03,19,00,09,4.80
2010,03,19,00,10,4.80
2010,03,19,00,11,4.80
2010,03,19,00,12,4.80
2010,03,19,00,13,4.80
2010,03,19,00,14,4.70
2010,03,19,00,15,4.70
2010,03,19,00,16,4.70
2010,03,19,00,17,4.70
2010,03,19,00,18,4.70
2010,03,19,00,19,4.70
2010,03,19,00,20,4.70
2010,03,19,00,21,4.60
2010,03,19,00,22,4.60
2010,03,19,00,23,4.60
2010,03,19,00,24,4.60
2010,03,19,00,25,4.60
2010,03,19,00,26,4.60
2010,03,19,00,27,4.50
2010,03,19,00,28,4.50
2010,03,19,00,29,4.50
2010,03,19,00,30,4.50
2010,03,19,00,31,4.40
2010,03,19,00,32,4.40
2010,03,19,00,33,4.40
2010,03,19,00,34,4.40
2010,03,19,00,35,4.40
2010,03,19,00,36,4.40
2010,03,19,00,37,4.40
2010,03,19,00,38,4.30
2010,03,19,00,39,4.30
2010,03,19,00,40,4.30
2010,03,19,00,41,4.30
2010,03,19,00,42,4.20
2010,03,19,00,43,4.20
2010,03,19,00,44,4.20
2010,03,19,00,45,4.20
2010,03,19,00,46,4.20
2010,03,19,00,47,4.20
2010,03,19,00,48,4.10
2010,03,19,00,49,4.10
2010,03,19,00,50,4.10
2010,03,19,00,51,4.10
2010,03,19,00,52,4.10
2010,03,19,00,53,4.10
2010,03,19,00,54,4.10
2010,03,19,00,55,4.10
2010,03,19,00,56,4.10
2010,03,19,00,57,4.10
2010,03,19,00,58,4.10
2010,03,19,00,59,4.10
2010,03,19,01,00,4.10
2010,03,19,01,01,4.10
2010,03,19,01,02,4.10
2010,03,19,01,03,4.10
2010,03,19,01,04,4.10
2010,03,19,01,05,4.10
2010,03,19,01,06,4.10
2010,03,19,01,07,4.10
2010,03,19,01,08,4.10
2010,03,19,01,09,4.10
2010,03,19,01,10,4.00
2010,03,19,01,11,4.00
2010,03,19,01,12,4.00
2010,03,19,01,13,4.00
2010,03,19,01,14,4.00
2010,03,19,01,15,4.00
2010,03,19,01,16,4.00
2010,03,19,01,17,3.90
2010,03,19,01,18,3.90
2010,03,19,01,19,3.90
2010,03,19,01,20,3.90
2010,03,19,01,21,3.90
2010,03,19,01,22,3.80
2010,03,19,01,23,3.80
2010,03,19,01,24,3.80
2010,03,19,01,25,3.80
2010,03,19,01,26,3.80
2010,03,19,01,27,3.80
2010,03,19,01,28,3.70
2010,03,19,01,29,3.70
2010,03,19,01,30,3.70
2010,03,19,01,31,3.70
2010,03,19,01,32,3.70
2010,03,19,01,33,3.70
2010,03,19,01,34,3.70
2010,03,19,01,35,3.70
2010,03,19,01,36,3.70
2010,03,19,01,37,3.70
2010,03,19,01,38,3.70
2010,03,19,01,39,3.70
2010,03,19,01,40,3.60
2010,03,19,01,41,3.60
2010,03,19,01,42,3.60
2010,03,19,01,43,3.60
2010,03,19,01,44,3.60
2010,03,19,01,45,3.50
2010,03,19,01,46,3.50
2010,03,19,01,47,3.40
2010,03,19,01,48,3.40
2010,03,19,01,49,3.40
2010,03,19,01,50,3.40
2010,03,19,01,51,3.40
2010,03,19,01,52,3.30
2010,03,19,01,53,3.30
2010,03,19,01,54,3.30
2010,03,19,01,55,3.30
2010,03,19,01,56,3.30
2010,03,19,01,57,3.30
2010,03,19,01,58,3.40
2010,03,19,01,59,3.40
2010,03,19,02,00,3.40
2010,03,19,02,01,3.50
2010,03,19,02,02,3.50
2010,03,19,02,03,3.50
2010,03,19,02,04,3.50
2010,03,19,02,05,3.50
2010,03,19,02,06,3.50
2010,03,19,02,07,3.50
2010,03,19,02,08,3.50
2010,03,19,02,09,3.50
2010,03,19,02,10,3.40
2010,03,19,02,11,3.40
2010,03,19,02,12,3.40
2010,03,19,02,13,3.40
2010,03,19,02,14,3.40
2010,03,19,02,15,3.40
2010,03,19,02,16,3.40
2010,03,19,02,17,3.40
2010,03,19,02,18,3.40
2010,03,19,02,19,3.40
2010,03,19,02,20,3.40
2010,03,19,02,21,3.40
2010,03,19,02,22,3.40
2010,03,19,02,23,3.40
2010,03,19,02,24,3.40
2010,03,19,02,25,3.40
2010,03,19,02,26,3.40
2010,03,19,02,27,3.40
2010,03,19,02,28,3.40
2010,03,19,02,29,3.40
2010,03,19,02,30,3.40
2010,03,19,02,31,3.40
2010,03,19,02,32,3.30
2010,03,19,02,33,3.30
2010,03,19,02,34,3.30
2010,03,19,02,35,3.30
2010,03,19,02,36,3.20
2010,03,19,02,37,3.20
2010,03,19,02,38,3.20
2010,03,19,02,39,3.20
2010,03,19,02,40,3.20
2010,03,19,02,41,3.20
2010,03,19,02,42,3.20
2010,03,19,02,43,3.20
2010,03,19,02,44,3.20
2010,03,19,02,45,3.20
2010,03,19,02,46,3.20
2010,03,19,02,47,3.20
2010,03,19,02,48,3.20
2010,03,19,02,49,3.20
2010,03,19,02,50,3.20
2010,03,19,02,51,3.20
2010,03,19,02,52,3.30
2010,03,19,02,53,3.30
2010,03,19,02,54,3.40
2010,03,19,02,55,3.40
2010,03,19,02,56,3.50
2010,03,19,02,57,3.50
2010,03,19,02,58,3.50
2010,03,19,02,59,3.60
2010,03,19,03,00,3.70
2010,03,19,03,01,3.70
2010,03,19,03,02,3.80
2010,03,19,03,03,3.80
2010,03,19,03,04,3.90
2010,03,19,03,05,3.90
2010,03,19,03,06,4.00
2010,03,19,03,07,4.00
2010,03,19,03,08,4.10
2010,03,19,03,09,4.10
2010,03,19,03,10,4.20
2010,03,19,03,11,4.20
2010,03,19,03,12,4.20
2010,03,19,03,13,4.30
2010,03,19,03,14,4.30
2010,03,19,03,15,4.30
2010,03,19,03,16,4.30
2010,03,19,03,17,4.30
2010,03,19,03,18,4.30
2010,03,19,03,19,4.30
2010,03,19,03,20,4.30
2010,03,19,03,21,4.30
2010,03,19,03,22,4.40
2010,03,19,03,23,4.40
2010,03,19,03,24,4.40
2010,03,19,03,25,4.40
2010,03,19,03,26,4.40
2010,03,19,03,27,4.40
2010,03,19,03,28,4.40
2010,03,19,03,29,4.40
2010,03,19,03,30,4.40
2010,03,19,03,31,4.50
2010,03,19,03,32,4.50
2010,03,19,03,33,4.70
2010,03,19,03,34,4.70
2010,03,19,03,35,4.90
2010,03,19,03,36,5.00
2010,03,19,03,37,5.10
2010,03,19,03,38,5.30
2010,03,19,03,39,5.50
2010,03,19,03,40,5.60
2010,03,19,03,41,5.80
2010,03,19,03,42,5.90
2010,03,19,03,43,6.00
2010,03,19,03,44,6.10
2010,03,19,03,45,6.20
2010,03,19,03,46,6.30
2010,03,19,03,47,6.30
2010,03,19,03,48,6.40
2010,03,19,03,49,6.40
2010,03,19,03,50,6.40
2010,03,19,03,51,6.50
2010,03,19,03,52,6.60
2010,03,19,03,53,6.60
2010,03,19,03,54,6.70
2010,03,19,03,55,6.70
2010,03,19,03,56,6.70
2010,03,19,03,57,6.70
2010,03,19,03,58,6.80
2010,03,19,03,59,6.80
2010,03,19,04,00,6.80
2010,03,19,04,01,6.80
2010,03,19,04,02,6.90
2010,03,19,04,03,6.90
2010,03,19,04,04,6.90
2010,03,19,04,05,7.00
2010,03,19,04,06,7.00
2010,03,19,04,07,7.00
2010,03,19,04,08,7.10
2010,03,19,04,09,7.10
2010,03,19,04,10,7.00
2010,03,19,04,11,7.00
2010,03,19,04,12,7.00
2010,03,19,04,13,7.00
2010,03,19,04,14,6.90
2010,03,19,04,15,7.00
2010,03,19,04,16,7.00
2010,03,19,04,17,7.00
2010,03,19,04,18,7.00
2010,03,19,04,19,7.00
2010,03,19,04,20,6.90
2010,03,19,04,21,6.90
2010,03,19,04,22,6.90
2010,03,19,04,23,6.90
2010,03,19,04,24,6.90
2010,03,19,04,25,6.90
2010,03,19,04,26,6.90
2010,03,19,04,27,6.80
2010,03,19,04,28,6.80
2010,03,19,04,29,6.80
2010,03,19,04,30,6.80
2010,03,19,04,31,6.80
2010,03,19,04,32,6.70
2010,03,19,04,33,6.70
2010,03,19,04,34,6.70
2010,03,19,04,35,6.70
2010,03,19,04,36,6.70
2010,03,19,04,37,6.70
2010,03,19,04,38,6.70
2010,03,19,04,39,6.70
2010,03,19,04,40,6.70
2010,03,19,04,41,6.70
2010,03,19,04,42,6.60
2010,03,19,04,43,6.60
2010,03,19,04,44,6.60
2010,03,19,04,45,6.60
2010,03,19,04,46,6.60
2010,03,19,04,47,6.60
2010,03,19,04,48,6.60
2010,03,19,04,49,6.60
2010,03,19,04,50,6.70
2010,03,19,04,51,6.70
2010,03,19,04,52,6.70
2010,03,19,04,53,6.70
2010,03,19,04,54,6.60
2010,03,19,04,55,6.60
2010,03,19,04,56,6.60
2010,03,19,04,57,6.60
2010,03,19,04,58,6.60
2010,03,19,04,59,6.60
2010,03,19,05,00,6.50
2010,03,19,05,01,6.40
2010,03,19,05,02,6.40
2010,03,19,05,03,6.30
2010,03,19,05,04,6.30
2010,03,19,05,05,6.20
2010,03,19,05,06,6.20
2010,03,19,05,07,6.20
2010,03,19,05,08,6.20
2010,03,19,05,09,6.20
2010,03,19,05,10,6.20
2010,03,19,05,11,6.20
2010,03,19,05,12,6.20
2010,03,19,05,13,6.10
2010,03,19,05,14,6.10
2010,03,19,05,15,6.10
2010,03,19,05,16,6.10
2010,03,19,05,17,6.00
2010,03,19,05,18,6.00
2010,03,19,05,19,6.00
2010,03,19,05,20,6.00
2010,03,19,05,21,6.00
2010,03,19,05,22,6.00
2010,03,19,05,23,6.00
2010,03,19,05,24,6.00
2010,03,19,05,25,6.00
2010,03,19,05,26,6.10
2010,03,19,05,27,6.10
2010,03,19,05,28,6.10
2010,03,19,05,29,6.20
2010,03,19,05,30,6.20
2010,03,19,05,31,6.20
2010,03,19,05,32,6.30
2010,03,19,05,33,6.30
2010,03,19,05,34,6.30
2010,03,19,05,35,6.30
2010,03,19,05,36,6.30
2010,03,19,05,37,6.30
2010,03,19,05,38,6.40
2010,03,19,05,39,6.40
2010,03,19,05,40,6.40
2010,03,19,05,41,6.40
2010,03,19,05,42,6.50
2010,03,19,05,43,6.50
2010,03,19,05,44,6.50
2010,03,19,05,45,6.50
2010,03,19,05,46,6.50
2010,03,19,05,47,6.50
2010,03,19,05,48,6.50
2010,03,19,05,49,6.50
2010,03,19,05,50,6.50
2010,03,19,05,51,6.50
2010,03,19,05,52,6.50
2010,03,19,05,53,6.50
2010,03,19,05,54,6.50
2010,03,19,05,55,6.50
2010,03,19,05,56,6.50
2010,03,19,05,57,6.50
2010,03,19,05,58,6.40
2010,03,19,05,59,6.40
2010,03,19,06,00,6.40
2010,03,19,06,01,6.40
2010,03,19,06,02,6.40
2010,03,19,06,03,6.40
2010,03,19,06,04,6.30
2010,03,19,06,05,6.30
2010,03,19,06,06,6.30
2010,03,19,06,07,6.20
2010,03,19,06,08,6.20
2010,03,19,06,09,6.20
2010,03,19,06,10,6.10
2010,03,19,06,11,6.10
2010,03,19,06,12,6.10
2010,03,19,06,13,6.10
2010,03,19,06,14,6.10
2010,03,19,06,15,6.10
2010,03,19,06,16,6.10
2010,03,19,06,17,6.00
2010,03,19,06,18,6.00
2010,03,19,06,19,6.00
2010,03,19,06,20,6.10
2010,03,19,06,21,6.10
2010,03,19,06,22,6.10
2010,03,19,06,23,6.10
2010,03,19,06,24,6.00
2010,03,19,06,25,6.00
2010,03,19,06,26,6.00
2010,03,19,06,27,6.00
2010,03,19,06,28,6.10
2010,03,19,06,29,6.10
2010,03,19,06,30,6.10
2010,03,19,06,31,6.10
2010,03,19,06,32,6.10
2010,03,19,06,33,6.10
2010,03,19,06,34,6.10
2010,03,19,06,35,6.10
2010,03,19,06,36,6.10
2010,03,19,06,37,6.10
2010,03,19,06,38,6.00
2010,03,19,06,39,6.00
2010,03,19,06,40,6.00
2010,03,19,06,41,6.00
2010,03,19,06,42,5.90
2010,03,19,06,43,5.90
2010,03,19,06,44,6.00
2010,03,19,06,45,6.00
2010,03,19,06,46,6.00
2010,03,19,06,47,5.90
2010,03,19,06,48,5.90
2010,03,19,06,49,5.90
2010,03,19,06,50,5.90
2010,03,19,06,51,5.90
2010,03,19,06,52,6.00
2010,03,19,06,53,6.00
2010,03,19,06,54,6.00
2010,03,19,06,55,6.00
2010,03,19,06,56,6.00
2010,03,19,06,57,6.00
2010,03,19,06,58,6.00
2010,03,19,06,59,6.00
2010,03,19,07,00,6.00
2010,03,19,07,01,6.00
2010,03,19,07,02,6.00
2010,03,19,07,03,5.90
2010,03,19,07,04,5.90
2010,03,19,07,05,5.90
2010,03,19,07,06,5.90
2010,03,19,07,07,5.90
2010,03,19,07,08,5.90
2010,03,19,07,09,5.90
2010,03,19,07,10,6.00
2010,03,19,07,11,6.00
2010,03,19,07,12,6.00
2010,03,19,07,13,6.00
2010,03,19,07,14,6.10
2010,03,19,07,15,6.10
2010,03,19,07,16,6.10
2010,03,19,07,17,6.10
2010,03,19,07,18,6.10
2010,03,19,07,19,6.10
2010,03,19,07,20,6.10
2010,03,19,07,21,6.10
2010,03,19,07,22,6.10
2010,03,19,07,23,6.10
2010,03,19,07,24,6.10
2010,03,19,07,25,6.10
2010,03,19,07,26,6.00
2010,03,19,07,27,6.00
2010,03,19,07,28,6.00
2010,03,19,07,29,5.90
2010,03,19,07,30,5.90
2010,03,19,07,31,5.90
2010,03,19,07,32,5.90
2010,03,19,07,33,5.90
2010,03,19,07,34,5.90
2010,03,19,07,35,5.90
2010,03,19,07,36,5.90
2010,03,19,07,37,5.90
2010,03,19,07,38,5.90
2010,03,19,07,39,5.90
2010,03,19,07,40,5.90
2010,03,19,07,41,5.90
2010,03,19,07,42,5.90
2010,03,19,07,43,5.90
2010,03,19,07,44,5.90
2010,03,19,07,45,5.90
2010,03,19,07,46,5.90
2010,03,19,07,47,5.90
2010,03,19,07,48,5.90
2010,03,19,07,49,5.90
2010,03,19,07,50,5.90
2010,03,19,07,51,5.90
2010,03,19,07,52,5.90
2010,03,19,07,53,5.90
2010,03,19,07,54,5.90
2010,03,19,07,55,5.90
2010,03,19,07,56,5.90
2010,03,19,07,57,5.90
2010,03,19,07,58,5.90
2010,03,19,07,59,5.90
2010,03,19,08,00,5.90
2010,03,19,08,01,6.00
2010,03,19,08,02,6.00
2010,03,19,08,03,6.00
2010,03,19,08,04,6.00
2010,03,19,08,05,6.00
2010,03,19,08,06,6.00
2010,03,19,08,07,6.00
2010,03,19,08,08,6.00
2010,03,19,08,09,6.00
2010,03,19,08,10,6.00
2010,03,19,08,11,6.00
2010,03,19,08,12,5.90
2010,03,19,08,13,6.00
2010,03,19,08,14,6.00
2010,03,19,08,15,6.00
2010,03,19,08,16,6.00
2010,03,19,08,17,6.00
2010,03,19,08,18,6.00
2010,03,19,08,19,6.00
2010,03,19,08,20,6.00
2010,03,19,08,21,6.10
2010,03,19,08,22,6.10
2010,03,19,08,23,6.10
2010,03,19,08,24,6.10
2010,03,19,08,25,6.10
2010,03,19,08,26,6.10
2010,03,19,08,27,6.10
2010,03,19,08,28,6.10
2010,03,19,08,29,6.10
2010,03,19,08,30,6.20
2010,03,19,08,31,6.20
2010,03,19,08,32,6.20
2010,03,19,08,33,6.20
2010,03,19,08,34,6.30
2010,03,19,08,35,6.30
2010,03,19,08,36,6.30
2010,03,19,08,37,6.40
2010,03,19,08,38,6.40
2010,03,19,08,39,6.40
2010,03,19,08,40,6.40
2010,03,19,08,41,6.40
2010,03,19,08,42,6.40
2010,03,19,08,43,6.50
2010,03,19,08,44,6.50
2010,03,19,08,45,6.60
2010,03,19,08,46,6.60
2010,03,19,08,47,6.60
2010,03,19,08,48,6.70
2010,03,19,08,49,6.70
2010,03,19,08,50,6.70
2010,03,19,08,51,6.70
2010,03,19,08,52,6.80
2010,03,19,08,53,6.80
2010,03,19,08,54,6.80
2010,03,19,08,55,6.90
2010,03,19,08,56,6.90
2010,03,19,08,57,6.90
2010,03,19,08,58,6.90
2010,03,19,08,59,7.00
2010,03,19,09,00,7.00
2010,03,19,09,01,7.00
2010,03,19,09,02,7.00
2010,03,19,09,03,7.00
2010,03,19,09,04,7.00
2010,03,19,09,05,7.00
2010,03,19,09,06,7.00
2010,03,19,09,07,7.00
2010,03,19,09,08,7.00
2010,03,19,09,09,7.00
2010,03,19,09,10,7.00
2010,03,19,09,11,7.00
2010,03,19,09,12,7.00
2010,03,19,09,13,7.10
2010,03,19,09,14,7.10
2010,03,19,09,15,7.10
2010,03,19,09,16,7.10
2010,03,19,09,17,7.10
2010,03,19,09,18,7.10
2010,03,19,09,19,7.10
2010,03,19,09,20,7.20
2010,03,19,09,21,7.20
2010,03,19,09,22,7.20
2010,03,19,09,23,7.20
2010,03,19,09,24,7.30
2010,03,19,09,25,7.30
2010,03,19,09,26,7.30
2010,03,19,09,27,7.40
2010,03,19,09,28,7.40
2010,03,19,09,29,7.40
2010,03,19,09,30,7.50
2010,03,19,09,31,7.50
2010,03,19,09,32,7.60
2010,03,19,09,33,7.60
2010,03,19,09,34,7.60
2010,03,19,09,35,7.60
2010,03,19,09,36,7.70
2010,03,19,09,37,7.70
2010,03,19,09,38,7.70
2010,03,19,09,39,7.70
2010,03,19,09,40,7.70
2010,03,19,09,41,7.70
2010,03,19,09,42,7.80
2010,03,19,09,43,7.80
2010,03,19,09,44,7.80
2010,03,19,09,45,7.80
2010,03,19,09,46,7.80
2010,03,19,09,47,7.80
2010,03,19,09,48,7.80
2010,03,19,09,49,7.80
2010,03,19,09,50,7.80
2010,03,19,09,51,7.80
2010,03,19,09,52,7.80
2010,03,19,09,53,7.80
2010,03,19,09,54,7.80
2010,03,19,09,55,7.80
2010,03,19,09,56,7.80
2010,03,19,09,57,7.90
2010,03,19,09,58,7.90
2010,03,19,09,59,7.90
2010,03,19,10,00,7.90
2010,03,19,10,01,7.90
2010,03,19,10,02,7.90
2010,03,19,10,03,7.90
2010,03,19,10,04,7.90
2010,03,19,10,05,8.00
2010,03,19,10,06,8.00
2010,03,19,10,07,8.00
2010,03,19,10,08,8.10
2010,03,19,10,09,8.10
2010,03,19,10,10,8.10
2010,03,19,10,11,8.10
2010,03,19,10,12,8.10
2010,03,19,10,13,8.20
2010,03,19,10,14,8.20
2010,03,19,10,15,8.20
2010,03,19,10,16,8.20
2010,03,19,10,17,8.20
2010,03,19,10,18,8.20
2010,03,19,10,19,8.20
2010,03,19,10,20,8.20
2010,03,19,10,21,8.20
2010,03,19,10,22,8.20
2010,03,19,10,23,8.20
2010,03,19,10,24,8.20
2010,03,19,10,25,8.20
2010,03,19,10,26,8.20
2010,03,19,10,27,8.30
2010,03,19,10,28,8.30
2010,03,19,10,29,8.40
2010,03,19,10,30,8.40
2010,03,19,10,31,8.40
2010,03,19,10,32,8.30
2010,03,19,10,33,8.30
2010,03,19,10,34,8.30
2010,03,19,10,35,8.30
2010,03,19,10,36,8.30
2010,03,19,10,37,8.20
2010,03,19,10,38,8.20
2010,03,19,10,39,8.20
2010,03,19,10,40,8.20
2010,03,19,10,41,8.20
2010,03,19,10,42,8.30
2010,03,19,10,43,8.30
2010,03,19,10,44,8.40
2010,03,19,10,45,8.50
2010,03,19,10,46,8.60
2010,03,19,10,47,8.60
2010,03,19,10,48,8.60
2010,03,19,10,49,8.60
2010,03,19,10,50,8.60
2010,03,19,10,51,8.60
2010,03,19,10,52,8.60
2010,03,19,10,53,8.60
2010,03,19,10,54,8.60
2010,03,19,10,55,8.60
2010,03,19,10,56,8.60
2010,03,19,10,57,8.70
2010,03,19,10,58,8.70
2010,03,19,10,59,8.80
2010,03,19,11,00,8.70
2010,03,19,11,01,8.70
2010,03,19,11,02,8.80
2010,03,19,11,03,8.80
2010,03,19,11,04,8.80
2010,03,19,11,05,8.70
2010,03,19,11,06,8.70
2010,03,19,11,07,8.60
2010,03,19,11,08,8.60
2010,03,19,11,09,8.60
2010,03,19,11,10,8.60
2010,03,19,11,11,8.60
2010,03,19,11,12,8.60
2010,03,19,11,13,8.60
2010,03,19,11,14,8.60
2010,03,19,11,15,8.70
2010,03,19,11,16,8.80
2010,03,19,11,17,8.80
2010,03,19,11,18,8.80
2010,03,19,11,19,8.70
2010,03,19,11,20,8.80
2010,03,19,11,21,8.80
2010,03,19,11,22,8.80
2010,03,19,11,23,8.80
2010,03,19,11,24,8.90
2010,03,19,11,25,8.90
2010,03,19,11,26,9.00
2010,03,19,11,27,9.00
2010,03,19,11,28,9.10
2010,03,19,11,29,9.10
2010,03,19,11,30,9.20
2010,03,19,11,31,9.30
2010,03,19,11,32,9.30
2010,03,19,11,33,9.30
2010,03,19,11,34,9.30
2010,03,19,11,35,9.40
2010,03,19,11,36,9.30
2010,03,19,11,37,9.30
2010,03,19,11,38,9.30
2010,03,19,11,39,9.20
2010,03,19,11,40,9.20
2010,03,19,11,41,9.30
2010,03,19,11,42,9.30
2010,03,19,11,43,9.30
2010,03,19,11,44,9.40
2010,03,19,11,45,9.40
2010,03,19,11,46,9.50
2010,03,19,11,47,9.50
2010,03,19,11,48,9.50
2010,03,19,11,49,9.60
2010,03,19,11,50,9.60
2010,03,19,11,51,9.60
2010,03,19,11,52,9.60
2010,03,19,11,53,9.70
2010,03,19,11,54,9.70
2010,03,19,11,55,9.70
2010,03,19,11,56,9.70
2010,03,19,11,57,9.80
2010,03,19,11,58,9.80
2010,03,19,11,59,9.80
2010,03,19,12,00,9.70
2010,03,19,12,01,9.70
2010,03,19,12,02,9.80
2010,03,19,12,03,9.80
2010,03,19,12,04,9.80
2010,03,19,12,05,9.90
2010,03,19,12,06,10.00
2010,03,19,12,07,10.10
2010,03,19,12,08,10.10
2010,03,19,12,09,10.10
2010,03,19,12,10,10.00
2010,03,19,12,11,9.90
2010,03,19,12,12,9.90
2010,03,19,12,13,10.00
2010,03,19,12,14,10.00
2010,03,19,12,15,10.10
2010,03,19,12,16,10.10
2010,03,19,12,17,10.20
2010,03,19,12,18,10.20
2010,03,19,12,19,10.20
2010,03,19,12,20,10.20
2010,03,19,12,21,10.20
2010,03,19,12,22,10.20
2010,03,19,12,23,10.20
2010,03,19,12,24,10.10
2010,03,19,12,25,10.10
2010,03,19,12,26,10.00
2010,03,19,12,27,10.00
2010,03,19,12,28,10.00
2010,03,19,12,29,10.00
2010,03,19,12,30,10.00
2010,03,19,12,31,10.10
2010,03,19,12,32,10.10
2010,03,19,12,33,10.10
2010,03,19,12,34,10.10
2010,03,19,12,35,10.10
2010,03,19,12,36,10.10
2010,03,19,12,37,10.20
2010,03,19,12,38,10.10
2010,03,19,12,39,10.10
2010,03,19,12,40,10.10
2010,03,19,12,41,10.20
2010,03,19,12,42,10.20
2010,03,19,12,43,10.30
2010,03,19,12,44,10.30
2010,03,19,12,45,10.30
2010,03,19,12,46,10.20
2010,03,19,12,47,10.10
2010,03,19,12,48,10.00
2010,03,19,12,49,10.00
2010,03,19,12,50,10.00
2010,03,19,12,51,10.00
2010,03,19,12,52,9.90
2010,03,19,12,53,9.90
2010,03,19,12,54,9.90
2010,03,19,12,55,9.90
2010,03,19,12,56,9.80
2010,03,19,12,57,9.90
2010,03,19,12,58,9.90
2010,03,19,12,59,9.90
2010,03,19,13,00,9.90
2010,03,19,13,01,9.90
2010,03,19,13,02,10.00
2010,03,19,13,03,10.00
2010,03,19,13,04,10.10
2010,03,19,13,05,10.20
2010,03,19,13,06,10.20
2010,03,19,13,07,10.20
2010,03,19,13,08,10.20
2010,03,19,13,09,10.30
2010,03,19,13,10,10.30
2010,03,19,13,11,10.30
2010,03,19,13,12,10.40
2010,03,19,13,13,10.40
2010,03,19,13,14,10.40
2010,03,19,13,15,10.40
2010,03,19,13,16,10.40
2010,03,19,13,17,10.30
2010,03,19,13,18,10.30
2010,03,19,13,19,10.40
2010,03,19,13,20,10.40
2010,03,19,13,21,10.40
2010,03,19,13,22,10.50
2010,03,19,13,23,10.50
2010,03,19,13,24,10.40
2010,03,19,13,25,10.40
2010,03,19,13,26,10.50
2010,03,19,13,27,10.50
2010,03,19,13,28,10.50
2010,03,19,13,29,10.50
2010,03,19,13,30,10.60
2010,03,19,13,31,10.60
2010,03,19,13,32,10.60
2010,03,19,13,33,10.60
2010,03,19,13,34,10.60
2010,03,19,13,35,10.60
2010,03,19,13,36,10.60
2010,03,19,13,37,10.60
2010,03,19,13,38,10.60
2010,03,19,13,39,10.60
2010,03,19,13,40,10.60
2010,03,19,13,41,10.50
2010,03,19,13,42,10.40
2010,03,19,13,43,10.50
2010,03,19,13,44,10.50
2010,03,19,13,45,10.50
2010,03,19,13,46,10.40
2010,03,19,13,47,10.40
2010,03,19,13,48,10.40
2010,03,19,13,49,10.40
2010,03,19,13,50,10.40
2010,03,19,13,51,10.40
2010,03,19,13,52,10.40
2010,03,19,13,53,10.40
2010,03,19,13,54,10.40
2010,03,19,13,55,10.40
2010,03,19,13,56,10.40
2010,03,19,13,57,10.40
2010,03,19,13,58,10.40
2010,03,19,13,59,10.40
2010,03,19,14,00,10.40
2010,03,19,14,01,10.40
2010,03,19,14,02,10.40
2010,03,19,14,03,10.50
2010,03,19,14,04,10.50
2010,03,19,14,05,10.40
2010,03,19,14,06,10.40
2010,03,19,14,07,10.40
2010,03,19,14,08,10.50
2010,03,19,14,09,10.60
2010,03,19,14,10,10.60
2010,03,19,14,11,10.60
2010,03,19,14,12,10.60
2010,03,19,14,13,10.60
2010,03,19,14,14,10.70
2010,03,19,14,15,10.60
2010,03,19,14,16,10.70
2010,03,19,14,17,10.60
2010,03,19,14,18,10.60
2010,03,19,14,19,10.60
2010,03,19,14,20,10.60
2010,03,19,14,21,10.60
2010,03,19,14,22,10.60
2010,03,19,14,23,10.60
2010,03,19,14,24,10.70
2010,03,19,14,25,10.70
2010,03,19,14,26,10.70
2010,03,19,14,27,10.80
2010,03,19,14,28,10.80
2010,03,19,14,29,10.90
2010,03,19,14,30,10.80
2010,03,19,14,31,10.80
2010,03,19,14,32,10.70
2010,03,19,14,33,10.80
2010,03,19,14,34,10.80
2010,03,19,14,35,10.80
2010,03,19,14,36,10.90
2010,03,19,14,37,10.90
2010,03,19,14,38,11.00
2010,03,19,14,39,11.10
2010,03,19,14,40,11.00
2010,03,19,14,41,11.00
2010,03,19,14,42,11.00
2010,03,19,14,43,11.00
2010,03,19,14,44,11.10
2010,03,19,14,45,11.10
2010,03,19,14,46,11.10
2010,03,19,14,47,11.10
2010,03,19,14,48,11.10
2010,03,19,14,49,11.20
2010,03,19,14,50,11.20
2010,03,19,14,51,11.30
2010,03,19,14,52,11.30
2010,03,19,14,53,11.30
2010,03,19,14,54,11.30
2010,03,19,14,55,11.20
2010,03,19,14,56,11.20
2010,03,19,14,57,11.30
2010,03,19,14,58,11.30
2010,03,19,14,59,11.40
2010,03,19,15,00,11.40
2010,03,19,15,01,11.40
2010,03,19,15,02,11.40
2010,03,19,15,03,11.40
2010,03,19,15,04,11.40
2010,03,19,15,05,11.40
2010,03,19,15,06,11.40
2010,03,19,15,07,11.40
2010,03,19,15,08,11.40
2010,03,19,15,09,11.40
2010,03,19,15,10,11.40
2010,03,19,15,11,11.30
2010,03,19,15,12,11.30
2010,03,19,15,13,11.20
2010,03,19,15,14,11.30
2010,03,19,15,15,11.30
2010,03,19,15,16,11.40
2010,03,19,15,17,11.50
2010,03,19,15,18,11.60
2010,03,19,15,19,11.60
2010,03,19,15,20,11.50
2010,03,19,15,21,11.50
2010,03,19,15,22,11.40
2010,03,19,15,23,11.40
2010,03,19,15,24,11.50
2010,03,19,15,25,11.50
2010,03,19,15,26,11.60
2010,03,19,15,27,11.60
2010,03,19,15,28,11.70
2010,03,19,15,29,11.70
2010,03,19,15,30,11.70
2010,03,19,15,31,11.60
2010,03,19,15,32,11.60
2010,03,19,15,33,11.60
2010,03,19,15,34,11.60
2010,03,19,15,35,11.60
2010,03,19,15,36,11.60
2010,03,19,15,37,11.70
2010,03,19,15,38,11.70
2010,03,19,15,39,11.70
2010,03,19,15,40,11.70
2010,03,19,15,41,11.70
2010,03,19,15,42,11.80
2010,03,19,15,43,11.80
2010,03,19,15,44,11.70
2010,03,19,15,45,11.70
2010,03,19,15,46,11.60
2010,03,19,15,47,11.60
2010,03,19,15,48,11.60
2010,03,19,15,49,11.60
2010,03,19,15,50,11.60
2010,03,19,15,51,11.60
2010,03,19,15,52,11.70
2010,03,19,15,53,11.70
2010,03,19,15,54,11.80
2010,03,19,15,55,11.80
2010,03,19,15,56,11.80
2010,03,19,15,57,11.80
2010,03,19,15,58,11.70
2010,03,19,15,59,11.70
2010,03,19,16,00,11.70
2010,03,19,16,01,11.70
2010,03,19,16,02,11.70
2010,03,19,16,03,11.70
2010,03,19,16,04,11.70
2010,03,19,16,05,11.70
2010,03,19,16,06,11.70
2010,03,19,16,07,11.70
2010,03,19,16,08,11.70
2010,03,19,16,09,11.70
2010,03,19,16,10,11.70
2010,03,19,16,11,11.80
2010,03,19,16,12,11.80
2010,03,19,16,13,11.80
2010,03,19,16,14,11.80
2010,03,19,16,15,11.80
2010,03,19,16,16,11.70
2010,03,19,16,17,11.70
2010,03,19,16,18,11.70
2010,03,19,16,19,11.70
2010,03,19,16,20,11.60
2010,03,19,16,21,11.60
2010,03,19,16,22,11.70
2010,03,19,16,23,11.70
2010,03,19,16,24,11.80
2010,03,19,16,25,11.80
2010,03,19,16,26,11.80
2010,03,19,16,27,11.80
2010,03,19,16,28,11.90
2010,03,19,16,29,12.00
2010,03,19,16,30,12.00
2010,03,19,16,31,12.00
2010,03,19,16,32,12.10
2010,03,19,16,33,12.10
2010,03,19,16,34,12.10
2010,03,19,16,35,12.10
2010,03,19,16,36,12.10
2010,03,19,16,37,12.10
2010,03,19,16,38,12.00
2010,03,19,16,39,12.00
2010,03,19,16,40,11.90
2010,03,19,16,41,11.90
2010,03,19,16,42,11.90
2010,03,19,16,43,11.90
2010,03,19,16,44,11.90
2010,03,19,16,45,11.90
2010,03,19,16,46,11.90
2010,03,19,16,47,11.90
2010,03,19,16,48,11.90
2010,03,19,16,49,11.90
2010,03,19,16,50,11.90
2010,03,19,16,51,11.90
2010,03,19,16,52,11.90
2010,03,19,16,53,11.90
2010,03,19,16,54,11.90
2010,03,19,16,55,11.90
2010,03,19,16,56,11.90
2010,03,19,16,57,11.80
2010,03,19,16,58,11.80
2010,03,19,16,59,11.80
2010,03,19,17,00,11.70
2010,03,19,17,01,11.70
2010,03,19,17,02,11.70
2010,03,19,17,03,11.70
2010,03,19,17,04,11.70
2010,03,19,17,05,11.70
2010,03,19,17,06,11.70
2010,03,19,17,07,11.70
2010,03,19,17,08,11.70
2010,03,19,17,09,11.70
2010,03,19,17,10,11.70
2010,03,19,17,11,11.70
2010,03,19,17,12,11.70
2010,03,19,17,13,11.60
2010,03,19,17,14,11.60
2010,03,19,17,15,11.60
2010,03,19,17,16,11.70
2010,03,19,17,17,11.70
2010,03,19,17,18,11.70
2010,03,19,17,19,11.70
2010,03,19,17,20,11.70
2010,03,19,17,21,11.70
2010,03,19,17,22,11.70
2010,03,19,17,23,11.80
2010,03,19,17,24,11.80
2010,03,19,17,25,11.80
2010,03,19,17,26,11.90
2010,03,19,17,27,11.90
2010,03,19,17,28,11.90
2010,03,19,17,29,11.90
2010,03,19,17,30,12.00
2010,03,19,17,31,12.00
2010,03,19,17,32,12.00
2010,03,19,17,33,11.90
2010,03,19,17,34,11.90
2010,03,19,17,35,11.90
2010,03,19,17,36,11.90
2010,03,19,17,37,11.90
2010,03,19,17,38,11.90
2010,03,19,17,39,11.90
2010,03,19,17,40,11.90
2010,03,19,17,41,11.90
2010,03,19,17,42,11.90
2010,03,19,17,43,11.90
2010,03,19,17,44,11.90
2010,03,19,17,45,11.90
2010,03,19,17,46,11.90
2010,03,19,17,47,11.90
2010,03,19,17,48,11.90
2010,03,19,17,49,11.90
2010,03,19,17,50,11.90
2010,03,19,17,51,11.90